Location: Kergrach
(48.3833°N, 4.5167°W)
Time: 09:03:44
(UTC+00:00)

NOSS 3-1 (A) - Pass Details

Date: 18 February 2020
Orbit: 761 x 1452 km, 63.4° (Epoch: 26 March)

Event Time Altitude Azimuth Distance (km) Brightness Sun altitude
Exits shadow 04:44:07 48° 290° (WNW) 1,609 4.2 -26.6°
Maximum altitude 04:46:13 63° 236° (WSW) 1,437 4.0 -26.3°
Drops below altitude 10° 04:54:42 10° 159° (SSE) 3,495 6.5 -24.9°
Sets 04:57:46 0° 156° (SSE) 4,509 7.1 -24.4°
